Weather observations for the past three days for
Eureka Airport ASOS
Metric (Imperial)
Date Time (pdt) Wind (kph) Vis. (km) Weather Sky Cond. Temperature (ºC) Relative Humidity Wind Chill (°C) Heat Index (°C) Pressure Precipitation (cm)
Air Dwpt 6 hour altimeter (cm) sea level (mb) 1 hr 3 hr 6 hr
Max. Min.
04 22:53 NE 17 0.00 NULL NULL 15.6 1.1 26.7 13.9 38% 76.2 1008.5
04 21:53 Calm 0.00 NULL NULL 14.4 -0.6 36% 76.15 1008.1
04 20:53 SE 13 0.00 NULL NULL 17.8 -1.7 27% 76.1 1007.2
04 19:53 S 17 0.00 NULL NULL 20.6 -3.3 20% 76.02 1006.6
04 18:53 S 26 0.00 NULL NULL 23.3 -4.4 15% 75.97 1006.6
04 17:53 S 31 G 44 0.00 NULL NULL 25.6 -5 13% 25 75.95 1005.7
04 15:53 SW 31 G 54 0.00 NULL NULL 27.2 -5.6 11% 26 75.92 1004.7
04 14:53 S 43 G 74 0.00 Windy NULL 27.2 -3.9 13% 26 75.95 1004.7
04 13:53 S 35 G 63 0.00 Breezy NULL 26.1 -3.3 14% 25 75.97 1004.7
04 12:53 S 31 G 52 0.00 NULL NULL 25 -2.8 16% 25 76 1004.7
04 11:53 S 26 G 44 0.00 NULL NULL 23.9 -1.7 18% 24 76.05 1005.6
04 10:53 Calm 0.00 NULL NULL 20 0 20.6 4.4 26% 76.12 1007.2
04 09:53 Vrbl 9 0.00 NULL NULL 18.3 1.1 32% 76.15 1007.6
04 08:53 N 15 0.00 NULL NULL 16.7 2.2 38% 76.15 1007.7
04 07:53 Calm 0.00 NULL NULL 12.2 1.1 47% 76.15 1008.2
04 06:53 SW 7 0.00 NULL NULL 6.7 -0.6 60% 6 76.15 1008.8
04 05:53 Calm 0.00 NULL NULL 6.1 -1.1 60% 76.1 1007.8
04 04:53 S 6 0.00 NULL NULL 8.3 -0.6 17.2 8.3 54% 76.07 1007.0
04 03:53 N 7 0.00 NULL NULL 8.3 -1.1 52% 7 76.05 1006.4
04 02:53 N 15 0.00 NULL NULL 8.9 -1.7 48% 7 76.02 1006.1
04 01:53 Calm 0.00 NULL NULL 12.2 -1.7 38% 76 1005.5
04 00:53 Calm 0.00 NULL NULL 15.6 -1.7 31% 75.97 1005.0
03 23:53 W 9 0.00 NULL NULL 16.1 -2.2 29% 75.95 1004.9
03 22:53 W 13 0.00 NULL NULL 16.7 -2.2 26.7 16.1 28% 75.9 1004.5
03 21:53 S 17 0.00 NULL NULL 18.3 -2.8 24% 75.9 1004.3
03 20:53 S 20 0.00 NULL NULL 20 -3.3 21% 75.87 1004.2
03 19:53 S 22 0.00 NULL NULL 21.1 -4.4 18% 75.82 1004.0
03 18:53 S 22 G 43 0.00 NULL NULL 23.3 -5 15% 75.79 1004.1
03 17:53 S 37 G 48 0.00 Breezy NULL 25.6 -5.6 12% 25 75.79 1004.2
03 16:53 S 31 G 43 0.00 NULL NULL 26.1 -5 27.2 18.9 12% 25 75.82 1004.1
03 15:53 S 35 G 46 0.00 Breezy NULL 27.2 -5 12% 26 75.84 1004.3
03 14:53 S 22 G 48 0.00 NULL NULL 25 -6.1 12% 25 75.97 1006.1
03 13:53 S 33 G 44 0.00 Breezy NULL 24.4 -5.6 13% 24 76.05 1007.6
03 12:53 Vrbl 7 0.00 NULL NULL 22.2 -4.4 17% 76.12 1008.6
03 11:53 Calm 0.00 NULL NULL 20.6 -3.3 20% 76.23 1010.4
03 10:53 E 7 0.00 NULL NULL 18.9 -3.9 18.9 3.3 21% 76.3 1011.3
03 09:53 Vrbl 6 0.00 NULL NULL 17.2 -3.9 24% 76.35 1011.6
03 08:53 Calm 0.00 NULL NULL 14.4 -5 26% 76.35 1012.1
03 07:53 SW 6 0.00 NULL NULL 10.6 -3.9 36% 76.4 1013.1
03 06:53 S 11 0.00 NULL NULL 6.1 -5 45% 4 76.35 1013.1
03 05:53 S 9 0.00 NULL NULL 3.3 -4.4 57% 1 76.33 1012.5
03 04:53 S 11 0.00 NULL NULL 5 -4.4 8.9 3.9 51% 3 76.33 1012.1
03 03:53 S 11 0.00 NULL NULL 4.4 -4.4 53% 2 76.35 1012.2
03 02:53 S 9 0.00 NULL NULL 6.1 -4.4 47% 4 76.35 1012.0
03 01:53 Calm 0.00 NULL NULL 4.4 -3.9 55% 76.35 1012.5
03 00:53 S 11 0.00 NULL NULL 6.1 -3.9 49% 4 76.35 1012.1
02 23:53 S 11 0.00 NULL NULL 7.2 -4.4 44% 5 76.35 1012.5
02 22:53 S 11 0.00 NULL NULL 8.9 -3.9 21.7 8.9 41% 7 76.35 1011.9
02 21:53 N 6 0.00 NULL NULL 12.8 -3.3 33% 76.35 1011.5
02 20:53 Calm 0.00 NULL NULL 14.4 -2.8 31% 76.3 1010.7
02 19:53 Vrbl 6 0.00 NULL NULL 15 -3.3 28% 76.25 1010.4
02 18:53 N 13 0.00 NULL NULL 17.2 -5 22% 76.23 1010.4
02 17:53 NW 15 0.00 NULL NULL 21.1 -9.4 12% 76.2 1010.0
02 16:53 Calm 0.00 NULL NULL 21.7 -9.4 22.2 18.9 12% 76.2 1008.7
02 15:53 Vrbl 6 0.00 NULL NULL 22.2 -7.8 13% 76.23 1008.8
02 14:53 N 13 0.00 NULL NULL 21.7 -8.3 13% 76.25 1009.0
02 13:53 N 11 0.00 NULL NULL 21.7 -8.3 13% 76.28 1008.9
02 12:53 NE 9 0.00 NULL NULL 21.1 -8.3 13% 76.3 1009.7
02 11:53 Vrbl 7 0.00 NULL NULL 19.4 -7.8 15% 76.35 1011.0
02 10:53 NE 17 0.00 NULL NULL 19.4 -6.7 19.4 5 17% 76.38 1011.0
02 09:53 N 13 0.00 NULL NULL 18.3 -7.2 17% 76.38 1011.1
02 08:53 N 9 0.00 NULL NULL 17.8 -7.2 18% 76.38 1011.0
02 07:53 S 11 0.00 NULL NULL 14.4 -8.3 20% 76.35 1011.2
02 06:53 S 19 0.00 NULL NULL 10 -9.4 25% 8 76.35 1010.9
02 05:53 S 7 0.00 NULL NULL 7.2 -8.9 31% 6 76.3 1010.3
02 04:53 SW 11 0.00 NULL NULL 12.2 -11.1 17.8 9.4 19% 76.23 1008.3
02 03:53 Vrbl 11 0.00 NULL NULL 11.7 -9.4 22% 76.2 1008.0
02 02:53 S 13 0.00 NULL NULL 14.4 -10 18% 76.17 1007.0
02 01:53 Vrbl 11 0.00 NULL NULL 16.1 -11.1 14% 76.17 1006.7
02 00:53 SW 7 0.00 NULL NULL 15 -10 17% 76.17 1007.4
01 23:53 E 7 0.00 NULL NULL 13.3 -6.1 26% 76.17 1007.8
Date Time (pdt) Wind (kph) Vis. (km) Weather Sky Cond. Air Dwpt Max. Min. Relative Humidity Wind Chill (°C) Heat Index (°C) altimeter (cm) sea level (mb) 1 hr 3 hr 6 hr
6 hour
Temperature (ºC) Pressure Precipitation (cm)